Location: Azul
(36.7830°S, 59.8500°W)
Time: 10:23:50
(UTC-03:00)

UKube-1 - Pass Details

Date: 31 October 2021
Orbit: 611 x 617 km, 98.4° (Epoch: 07 December)

Event Time Altitude Azimuth Distance (km) Brightness Sun altitude
Exits shadow 20:11:38 10° 59° (ENE) 1,970 ? -8.2°
Maximum altitude 20:15:01 24° 112° (ESE) 1,312 ? -8.9°
Drops below altitude 10° 20:18:28 10° 164° (SSE) 2,003 ? -9.5°
Sets 20:21:00 0° 178° (S) 2,917 ? -9.9°
